World > North America > United States > Alabama > Mount Meigs  

Mount Meigs, AL Hourly Weather Updates

Feedback E-mail the Weather

Quick Clicks

Mount Meigs, AL Weather Maps

°F °C°F °C
Mount Meigs Weather Map
UTC Time: 4/23/2024, 01:44
Your Time:

Mount Meigs, AL Regional Weather

Expires:202404230200;;213121
ASUS44 KBMX 230110
RWRAL 
             
ALABAMA REGIONAL WEATHER ROUNDUP
NATIONAL WEATHER SERVICE BIRMINGHAM AL
800 PM CDT MON APR 22 2024

NOTE: "FAIR" INDICATES FEW OR NO CLOUDS BELOW 12,000 FEET
WITH NO SIGNIFICANT WEATHER AND/OR OBSTRUCTIONS TO VISIBILITY.

THE REMARK "TC" DENOTES TEMPERATURE IN DEGREES CELSIUS.


ALZ015-024>026-033>036-041>044-230200-
CENTRAL ALABAMA
  
CITY           SKY/WX    TMP DP  RH WIND       PRES   REMARKS
BIRMINGHAM     CLEAR     56  40  55 CALM      30.16S TC  13           
MONTGOMERY     CLEAR     60  40  47 CALM      30.14S TC  16           
SHELBY CO ARPT CLEAR     54  46  74 CALM      30.14S TC  12           
MAXWELL AFB    CLEAR     58  40  50 CALM      30.12S TC  15           
GREENVILLE     CLEAR     52  44  74 CALM      30.14R TC  11           
SELMA          CLEAR     54  50  87 CALM      30.14S TC  12           
PRATTVILLE     CLEAR     54  43  65 CALM      30.14S TC  12           
BESSEMER       CLEAR     51  40  65 CALM      30.15F TC  11           
TALLADEGA      CLEAR     57  45  62 CALM      30.13S TC  14           
PELL CITY      CLEAR     52  43  71 CALM      30.15S TC  11           
SYLACAUGA      CLOUDY    53  44  70 CALM      30.15S TC  12           
JASPER         CLEAR     52  50  93 CALM      30.14S TC  11           
$$
 

SKY/WX - Weather  TMP - Temperature  DP - Dew Point  RH - Humidity
WIND - Wind Direction/Speed PRES - Barometric Pressure VSB - Visibility
WCI - Wind Chill Index E13G22 Wind - East Wind 13 mph/Gusts of 22 mph

Trending Headlines

Trending Entertainment Headlines

Mount Meigs Radar Loop

Use the map search tool if you want to place a location marker on the radar map...

Mount Meigs Quick Facts

National Two Day Weather Forecast


E-mail the Mount Meigs Weather Forecast

Voice your opinion or tell us about page issues...